www.pogodaiklimat.ru

Погода и климат >> Архив погоды >> Норвегия >> Йомфрулянд


ПОГОДА в Йомфрулянде

  • Прогноз погоды в Йомфрулянде
  • Монитор погоды в Йомфрулянде

АРХИВ ПОГОДЫ в Йомфрулянде

Время (UTC), дата Ветер
(напр.,м/с)
 
Видим.   Явления Облачность Т
(С)
Тd
(С)
f
(%)
Тe
(С)
Тes
(С)
Комфортность P
(гПа)
Po
(гПа)
Тmin
(С)
Tmax
(С)
R
(мм)
R24
(мм)
S
(см)
01 10.06 ЮЗ 5-7
{8}
н/о н/о +10.7 +8.3 85 +8 +8 1019.2 1018.6
02 10.06 ЮЗ 7-8
{8}
н/о н/о +10.8 +8.7 87 +7 +7 1019.3 1018.7
03 10.06 З 5-7
{8}
н/о н/о +10.2 +8.6 90 +7 +7 1019.4 1018.8
04 10.06 ЮЗ 6-8
{8}
н/о н/о +10.5 +8.6 88 +7 +7 1019.5 1018.8
05 10.06 ЮЗ 6-6
{7}
н/о н/о +11.2 +8.8 85 +8 +8 1019.8 1019.2
06 10.06 ЮЗ 6-7
{8}
н/о н/о +11.9 +9.8 87 +9 +9 1019.7 1019.1 +10.0 +13.7
07 10.06 ЮЗ 8-9
{9}
н/о н/о +12.5 +10.1 85 +9 +9 1020.0 1019.4
08 10.06 ЮЗ 7-8
{9}
н/о н/о +13.3 +10.5 83 +11 +11 1019.8 1019.2
09 10.06 Ю 8-9
{9}
н/о н/о +13.6 +11.1 85 +11 +11 1020.0 1019.4
10 10.06 ЮЗ 8-9
{9}
н/о н/о +14.0 +11.2 83 +11 +11 1019.8 1019.2
11 10.06 ЮЗ 8-10
{10}
н/о н/о +14.4 +11.2 81 +12 +12 1019.9 1019.3
12 10.06 ЮЗ 8-10
{11}
н/о н/о +14.3 +12.0 86 +12 +12 1019.9 1019.3
13 10.06 ЮЗ 8-10
{10}
н/о н/о +14.1 +11.1 82 +12 +12 1019.8 1019.2
14 10.06 ЮЗ 8-9
{9}
н/о н/о +14.2 +11.4 83 +12 +12 1019.7 1019.1
15 10.06 ЮЗ 7-8
{9}
н/о н/о +14.1 +11.6 85 +12 +12 1019.6 1019.0
16 10.06 ЮЗ 6-7
{9}
н/о н/о +14.1 +12.0 87 +12 +12 1019.4 1018.8
17 10.06 ЮЗ 7-8
{8}
н/о н/о +13.9 +12.5 91 +11 +11 1019.7 1019.1
18 10.06 ЮЗ 7-8
{10}
н/о н/о +13.6 +12.2 91 +11 +11 1019.5 1018.9 +11.9 +14.6
19 10.06 ЮЗ 5-6
{8}
н/о н/о +13.2 +11.6 90 +11 +11 1019.4 1018.8
20 10.06 З 2-3
{6}
н/о н/о +13.0 +9.3 78 +12 +12 1019.6 1019.0
21 10.06 ЮЗ 2-2
{3}
н/о н/о +12.8 +9.6 81 +12 +12 1019.9 1019.3
22 10.06 СВ 2-3
{3}
н/о н/о +10.2 +9.8 97 +9 +9 1019.7 1019.1
23 10.06 СВ 3-3
{4}
н/о н/о +10.9 +10.8 99 +9 +9 1019.2 1018.5
00 11.06 СВ 3-3
{8}
н/о н/о +10.6 +10 +10 1019.3 1018.7
01 11.06 СВ 2-2
{3}
н/о н/о +10.1 +9.7 97 +8 +8 1019.5 1018.9
02 11.06 СВ 3-3
{4}
н/о н/о +10.0 +9 +9 1019.8 1019.1
03 11.06 СВ 3-5
{5}
н/о н/о +11.1 +10.5 96 +9 +9 1019.7 1019.1
04 11.06 СВ 5-6
{6}
н/о н/о +11.6 +9.9 89 +9 +9 1019.8 1019.2
05 11.06 С 5-6
{7}
н/о н/о +11.9 +10.0 88 +9 +9 1019.7 1019.1
06 11.06 СВ 5-6
{7}
н/о н/о +12.6 +10.3 86 +10 +10 1019.9 1019.3 +9.5 +13.6
07 11.06 СВ 6-7
{7}
н/о н/о +14.0 +9.8 76 +12 +12 1019.9 1019.3
08 11.06 СВ 6-8
{8}
н/о н/о +15.5 +9.9 69 +14 +14 1020.0 1019.4
09 11.06 СВ 6-8
{9}
н/о н/о +16.3 +10.4 68 +15 +15 1019.9 1019.3
10 11.06 СВ 6-8
{9}
н/о н/о +18.0 +10.6 62 +17 +17 1019.5 1018.9
11 11.06 СВ 6-9
{10}
н/о н/о +19.7 +11.2 58 +21 +21 комфорт 1019.5 1018.9
12 11.06 СВ 5-8
{10}
н/о н/о +20.2 +10.3 53 +22 +22 комфорт 1019.2 1018.7
13 11.06 СВ 6-8
{10}
н/о н/о +18.7 +10.3 58 +19 +19 1019.1 1018.5
14 11.06 В 4-7
{10}
н/о н/о +15.2 +12.9 86 +14 +14 1019.7 1019.1
15 11.06 В 6-9
{10}
н/о н/о +14.2 +12.8 91 +12 +12 1020.1 1019.5
16 11.06 СВ 6-10
{10}
н/о н/о +13.9 +13.3 96 +12 +12 1019.6 1019.0
17 11.06 СВ 6-9
{9}
н/о н/о +13.5 +13.2 98 +11 +11 1020.2 1019.6
18 11.06 СВ 6-9
{10}
н/о н/о +13.3 +12 +12 1020.7 1020.1 +12.6 +20.3
19 11.06 СВ 8-12
{12}
н/о н/о +12.9 +11 +11 1020.4 1019.8
20 11.06 СВ 8-13
{13}
н/о н/о +12.4 +10 +10 1020.6 1020.0
21 11.06 СВ 10-14
{14}
н/о н/о +12.2 +9 +9 1020.6 1020.0
22 11.06 СВ 10-16
{16}
н/о н/о +12.2 +9 +9 1020.8 1020.2
23 11.06 СВ 9-14
{14}
н/о н/о +11.7 +9 +9 1021.3 1020.7
00 12.06 СВ 11-18
{19}
н/о н/о +11.6 +10.7 94 +7 +7 1020.6 1020.0
01 12.06 СВ 10-16
{18}
н/о н/о +12.5 +9.3 81 +9 +9 1021.2 1020.6
02 12.06 СВ 9-14
{19}
н/о н/о +12.0 +9.4 84 +8 +8 1021.4 1020.8
03 12.06 СВ 7-12
{15}
н/о н/о +11.9 +8.9 82 +9 +9 1021.2 1020.6
04 12.06 СВ 7-11
{13}
н/о н/о +11.8 +10.1 89 +9 +9 1021.1 1020.5
05 12.06 СВ 8-13
{13}
н/о н/о +12.0 +8.7 80 +9 +9 1020.5 1019.9
06 12.06 СВ 8-12
{19}
н/о н/о +12.0 +7.9 76 +9 +9 1020.8 1020.2 +11.6 +13.4
07 12.06 СВ 9-14
{15}
н/о н/о +11.7 +8.0 78 +8 +8 1020.4 1019.8
08 12.06 СВ 7-12
{14}
н/о н/о +11.9 +8.0 77 +9 +9 1020.2 1019.6
09 12.06 СВ 10-13
{14}
н/о н/о +12.4 +7.9 74 +9 +9 1019.5 1018.9
10 12.06 СВ 11-15
{15}
н/о н/о +12.7 +7.4 70 +9 +9 1018.3 1017.7
11 12.06 СВ 7-11
{14}
н/о н/о +12.4 +7.1 70 +10 +10 1019.8 1019.2
12 12.06 СВ 10-13
{15}
н/о н/о +10.7 +9.1 90 +6 +6 1019.3 1018.7
13 12.06 С 9-12
{13}
н/о н/о +10.7 +8.6 87 +7 +7 1019.3 1018.6
14 12.06 С 8-12
{12}
н/о н/о +10.7 +8.8 88 +7 +7 1018.6 1018.0
15 12.06 С 8-11
{12}
н/о н/о +11.0 +8.6 85 +7 +7 1018.4 1017.8
16 12.06 СВ 9-13
{13}
н/о н/о +11.3 +8.5 83 +8 +8 1017.1 1016.5
17 12.06 СВ 9-13
{14}
н/о н/о +11.3 +8.5 83 +8 +8 1016.7 1016.1
18 12.06 СВ 9-13
{15}
н/о н/о +10.4 +8.7 89 +6 +6 1016.2 1015.6 +10.4 +13.3
19 12.06 СВ 10-13
{15}
н/о н/о +10.6 +8.9 89 +6 +6 1015.8 1015.2
20 12.06 СВ 9-14
{14}
н/о н/о +10.7 +8.8 88 +7 +7 1015.2 1014.6
21 12.06 СВ 9-12
{14}
н/о н/о +10.6 +9.7 94 +6 +6 1014.2 1013.6
22 12.06 СВ 10-12
{13}
н/о н/о +10.1 +7 +7 1013.1 1012.5
23 12.06 СВ 5-9
{13}
н/о н/о +10.1 +8 +8 1014.0 1013.4
00 13.06 СВ 9-12
{15}
н/о н/о +10.0 +7 +7 1011.3 1010.7
01 13.06 СВ 8-11
{14}
н/о н/о +10.3 +8 +8 1010.2 1009.6
02 13.06 СВ 8-12
{14}
н/о н/о +10.9 +10.9 100 +7 +7 1008.6 1008.0
03 13.06 СВ 6-9
{12}
н/о н/о +10.8 +10.8 100 +7 +7 1008.4 1007.8
04 13.06 СВ 6-9
{10}
н/о н/о +10.4 +8 +8 1009.0 1008.4
05 13.06 СВ 5-7
{9}
н/о н/о +10.4 +9 +9 1008.7 1008.1
06 13.06 СВ 6-8
{14}
н/о н/о +10.7 +9 +9 1008.2 1007.6 +9.9 +11.0
07 13.06 СВ 4-6
{9}
н/о н/о +10.9 +10 +10 1008.9 1008.3
08 13.06 СВ 5-7
{7}
н/о н/о +11.2 +9 +9 1009.0 1008.4
09 13.06 СВ 4-6
{6}
н/о н/о +11.6 +10 +10 1009.5 1008.9
10 13.06 СВ 3-5
{5}
н/о н/о +12.0 +11 +11 1009.9 1009.3
11 13.06 СВ 2-3
{7}
н/о н/о +12.5 +12 +12 1010.8 1010.2
12 13.06 ЮЗ 7-9
{9}
н/о н/о +13.3 +11 +11 1011.4 1010.8
13 13.06 ЮЗ 7-9
{10}
н/о н/о +14.3 +13.4 94 +12 +12 1011.7 1011.1
14 13.06 ЮЗ 7-8
{10}
н/о н/о +14.4 +13.0 91 +12 +12 1012.4 1011.9
15 13.06 Ю 4-5
{7}
н/о н/о +15.2 +12.9 86 +14 +14 1012.6 1012.0
16 13.06 Ю 3-5
{6}
н/о н/о +14.6 +12.1 85 +14 +14 1013.2 1012.6
17 13.06 Ю 5-7
{7}
н/о н/о +13.3 +11.9 91 +11 +11 1014.3 1013.7
18 13.06 ЮВ 2-3
{10}
н/о н/о +13.7 +12.1 90 +13 +13 1014.5 1013.9 +10.6 +15.4
19 13.06 В 2-3
{5}
н/о н/о +12.2 +12 +12 1014.9 1014.3
20 13.06 СВ 3-4
{4}
н/о н/о +12.7 +12 +12 1015.2 1014.6
21 13.06 В 2-4
{5}
н/о н/о +13.1 +13 +13 1015.8 1015.2
22 13.06 В 2-2
{4}
н/о н/о +13.2 +13 +13 1015.8 1015.2
23 13.06 В 2-2
{3}
н/о н/о +13.2 +13 +13 1016.1 1015.5
00 14.06 СВ 2-3
{5}
н/о н/о +12.8 +13 +13 1016.0 1015.4
01 14.06 СВ 3-5
{5}
н/о н/о +11.9 +11 +11 1016.1 1015.5
02 14.06 СВ 4-6
{6}
н/о н/о +12.0 +11 +11 1016.1 1015.5
03 14.06 СВ 4-5
{6}
н/о н/о +12.2 +11 +11 1016.0 1015.4
04 14.06 СВ 4-5
{6}
н/о н/о +12.5 +11 +11 1016.1 1015.5
05 14.06 СВ 4-6
{6}
н/о н/о +13.0 +13.0 100 +11 +11 1016.4 1015.8
06 14.06 В 4-6
{8}
н/о н/о +13.2 +12 +12 1016.7 1016.1 +11.9 +13.7
07 14.06 В 5-8
{8}
н/о н/о +13.9 +13 +13 1017.0 1016.4
08 14.06 В 3-4
{7}
н/о н/о +14.8 +15 +15 1017.5 1016.9
09 14.06 В 3-5
{5}
н/о н/о +16.0 +15.4 96 +15 +15 1017.9 1017.3
10 14.06 В 3-4
{5}
н/о н/о +16.3 +15.5 95 +16 +16 1018.1 1017.5
11 14.06 В 3-5
{5}
н/о н/о +16.7 +15.2 91 +16 +16 1018.3 1017.7
12 14.06 Ю 2-3
{8}
н/о н/о +17.0 +14.3 84 +17 +17 1018.5 1017.9
13 14.06 Ю 2-4
{5}
н/о н/о +16.3 +15.0 92 +16 +16 1018.9 1018.3
14 14.06 Ю 3-4
{4}
н/о н/о +16.8 +15.2 90 +17 +17 1019.0 1018.4
15 14.06 Ю 3-4
{5}
н/о н/о +16.6 +15.3 92 +16 +16 1018.8 1018.2
16 14.06 В 2-3
{3}
н/о н/о +15.7 +14.7 94 +16 +16 1018.4 1017.8
17 14.06 В 2-3
{4}
н/о н/о +15.7 +14.7 94 +16 +16 1018.6 1018.0
18 14.06 В 2-3
{5}
н/о н/о +15.5 +14.9 96 +15 +15 1018.9 1018.3 +13.2 +17.7
19 14.06 СВ 1-2
{3}
н/о н/о +14.7 +14.7 100 +15 +15 1018.8 1018.2
20 14.06 СВ 2-3
{3}
н/о н/о +14.3 +14 +14 1018.6 1018.0
21 14.06 -2
{3}
н/о н/о +13.8 1019.1 1018.5
22 14.06 СВ 2-2
{2}
н/о н/о +13.5 +14 +14 1019.2 1018.6
23 14.06 СВ 2-3
{3}
н/о н/о +13.8 +14 +14 1019.6 1019.0
00 15.06 СВ 2-3
{4}
н/о н/о +13.0 +13 +13 1019.1 1018.5
01 15.06 СВ 2-3
{3}
н/о н/о +12.5 +12 +12 1019.1 1018.5
02 15.06 СВ 3-3
{3}
н/о н/о +12.3 +12 +12 1019.1 1018.5
03 15.06 СВ 3-4
{4}
н/о н/о +12.5 +12 +12 1019.0 1018.4
04 15.06 СВ 3-4
{4}
н/о н/о +13.6 +13.6 100 +12 +12 1018.8 1018.2
05 15.06 СВ 5-6
{6}
н/о н/о +14.6 +13.5 93 +13 +13 1018.4 1017.8
06 15.06 СВ 3-4
{6}
н/о н/о +16.3 +14.5 89 +16 +16 1018.3 1017.7 +11.9 +16.3
07 15.06 СВ 4-5
{5}
н/о н/о +16.7 +13.8 83 +16 +16 1018.5 1017.9
08 15.06 СВ 4-6
{6}
н/о н/о +17.3 +13.8 80 +17 +17 1017.9 1017.3
09 15.06 СВ 4-5
{6}
н/о н/о +19.3 +13.5 69 +21 +21 комфорт 1018.0 1017.4
10 15.06 В 5-7
{7}
н/о н/о +20.6 +11.5 56 +22 +22 комфорт 1017.6 1017.0
11 15.06 СВ 4-6
{7}
н/о н/о +21.7 +12.3 55 +24 +24 комфорт 1016.5 1015.9
12 15.06 СВ 5-7
{7}
н/о н/о +22.2 +12.2 53 +25 +25 комфорт 1016.1 1015.5
13 15.06 В 5-7
{8}
н/о н/о +21.4 +12.5 57 +24 +24 комфорт 1015.6 1015.0
14 15.06 В 5-6
{7}
н/о н/о +21.4 +13.1 59 +24 +24 комфорт 1015.2 1014.6
15 15.06 СВ 5-7
{9}
н/о н/о +21.1 +13.0 60 +23 +23 комфорт 1014.8 1014.2
16 15.06 В 3-6
{6}
н/о н/о +20.3 +13.0 63 +23 +23 комфорт 1014.4 1013.8
17 15.06 В 2-3
{5}
н/о н/о +20.0 +13.5 66 +23 +23 комфорт 1014.2 1013.6
18 15.06 Ю 1-2
{9}
н/о н/о +18.5 +14.2 76 +20 +20 1014.3 1013.7 +16.3 +22.8
19 15.06 Ю 1-2
{4}
н/о н/о +17.9 +13.6 76 +19 +19 1014.1 1013.5
20 15.06 З 2-3
{4}
н/о н/о +15.9 +14.8 93 +16 +16 1014.0 1013.4
21 15.06 С 2-2
{3}
н/о н/о +15.9 +15.1 95 +16 +16 1013.7 1013.1
22 15.06 СВ 2-3
{3}
н/о н/о +16.4 +14.8 90 +16 +16 1013.5 1012.9
23 15.06 СВ 4-6
{7}
н/о н/о +16.6 +14.8 89 +16 +16 1012.9 1012.3
00 16.06 СВ 2-3
{7}
н/о н/о +17.1 +13.8 81 +17 +17 1012.7 1012.1
01 16.06 ЮЗ 1-2
{3}
н/о н/о +15.8 +14.7 93 +16 +16 1012.5 1011.9
02 16.06 В 2-3
{3}
н/о н/о +15.9 +13.7 87 +16 +16 1012.4 1011.8
03 16.06 В 2-4
{4}
н/о н/о +15.7 +13.7 88 +16 +16 1012.3 1011.7
04 16.06 Ю 1-2
{4}
н/о н/о +15.1 +14.0 93 +16 +16 1012.4 1011.8
05 16.06 СВ 1-2
{3}
н/о н/о +14.9 +14.9 100 +15 +15 1012.3 1011.7
06 16.06 В 1-2
{4}
н/о н/о +15.2 +15.0 99 +16 +16 1012.5 1011.9 +14.7 +18.5
07 16.06 ЮВ 2-3
{3}
н/о н/о +14.8 +14.6 99 +14 +14 1012.7 1012.1
08 16.06 ЮЗ 2-3
{3}
н/о н/о +14.8 +15 +15 1013.2 1012.6
09 16.06 Ю 2-2
{2}
н/о н/о +14.8 +15 +15 1013.4 1012.8
10 16.06 ЮЗ 2-3
{3}
н/о н/о +15.7 +16 +16 1013.6 1013.0
11 16.06 ЮЗ 5-6
{6}
н/о н/о +15.1 +14 +14 1014.0 1013.4
12 16.06 ЮЗ 5-7
{7}
н/о н/о +16.6 +16.1 97 +16 +16 1014.3 1013.7
13 16.06 ЮЗ 8-9
{9}
н/о н/о +16.1 +15.1 94 +14 +14 1014.4 1013.8
14 16.06 ЮЗ 8-10
{11}
н/о н/о +16.2 +13.1 82 +15 +15 1014.6 1014.0
15 16.06 ЮЗ 10-12
{12}
н/о н/о +16.2 +13.3 83 +14 +14 1014.3 1013.7
16 16.06 ЮЗ 13-15
{16}
н/о н/о +15.3 +14.5 95 +13 +13 1014.1 1013.5
17 16.06 ЮЗ 12-14
{15}
н/о н/о +15.2 +14.7 97 +12 +12 1014.2 1013.6
18 16.06 ЮЗ 12-14
{16}
н/о н/о +14.9 +14.7 99 +12 +12 1014.4 1013.8 +14.6 +16.7
19 16.06 ЮЗ 12-14
{15}
н/о н/о +14.5 +14.5 100 +11 +11 1014.5 1013.9
20 16.06 ЮЗ 11-13
{14}
н/о н/о +14.5 +14.3 99 +12 +12 1014.5 1013.9
21 16.06 ЮЗ 11-13
{13}
н/о н/о +14.3 +14.3 100 +11 +11 1014.8 1014.2
22 16.06 ЮЗ 10-11
{13}
н/о н/о +14.1 +14.1 100 +11 +11 1015.1 1014.5
23 16.06 ЮЗ 10-12
{12}
н/о н/о +14.0 +13.2 95 +11 +11 1015.5 1014.9
00 17.06 ЮЗ 8-10
{15}
н/о н/о +13.4 +11.5 88 +11 +11 1015.7 1015.1

 

Местоположение метеостанции Йомфрулянд (Норвегия): широта 58.86 долгота 9.57 высота над уровнем моря 5 м.

В архиве по умолчанию представлена погода в Йомфрулянде за последнюю неделю. Архивные данные за месяц целиком и за предыдущие месяцы, начиная с января 2011 года, Вы можете получить, выбрав интересующий диапазон дат из раскрывающегося списка и нажав кнопку "Ввод!".


*Определитесь, кто Вы:
робот инопланетянин человек

Внимание! Время в таблицах - всемирное. Для получения местного времени необходимо прибавить поправку, которая равна 1 ч.

Смотрите также архив погоды в соседних городах и на ближайших метеорологических станциях:

Погода в Порсгрунне (Норвегия) (26 км)
Погода в Гьерстаде (Норвегия) (31 км)
Погода на Маяке Lyngor (Норвегия) (35 км)
Погода на Маяке Svenner (Норвегия) (35 км)
Погода на Маяке Ferder (Норвегия) (58 км)
Погода в Нелауге (Норвегия) (59 км)
Погода в Мелсоме (Норвегия) (61 км)
Погода во Гварве (Норвегия) (61 км)
Погода в Твейтсунде (Норвегия) (63 км)
Погода на Маяке Torungen (Норвегия) (68 км)

Пояснения к столбцам:

Ветер - указаны скорость ветра в м/с - средняя за 10 мин, порывы в срок и между сроками (в фигурных скобках) и направление, откуда дует ветер: С - северный, СВ - северо-восточный, В - восточный, ЮВ - юго-восточный, Ю - южный, ЮЗ - юго-западный, З - западный, СЗ - северо-западный.
Видимость - горизонтальная дальность видимости в метрах или километрах. При видимости от 1 до 10 км при отсутствии осадков обычно наблюдается дымка, при ухудшении видимости до 1 км и менее - туман. В сухую погоду видимость может ухудшаться дымом, пылью или мглою.
Явления - указаны атмосферные явления, наблюдавшиеся в срок или в последний час перед сроком; фигурными скобками обозначены явления, наблюдавшиеся между сроками (за 1-3 часа до срока); квадратными скобками обозначены град или гололедные отложения с указанием их диаметра в мм.
Облачность - указаны через наклонную черту общая и нижняя облачность в баллах и высота нижней границы облаков в метрах; квадратными скобками обозначены формы облаков: Ci - перистые, Cs - перисто-слоистые, Cc - перисто-кучевые, Ac - высококучевые, As - высокослоистые, Sc - слоисто-кучевые, Ns - слоисто-дождевые, Cu - кучевые, Cb - кучево-дождевые. Подробнее классификацию облаков см. в Атласе облаков (PDF).
T - Температура воздуха - температура, измеренная на высоте 2 м над землей.
Td - Температура точки росы - температура, при понижении до которой содержащийся в воздухе водяной пар достигнет насыщения.
f - Относительная влажность воздуха - влажноcть воздуха, измеренная на высоте 2 м над землей.
Te - Эффективная температура - температура, которую ощущает одетый по сезону человек в тени. Характеристика душности погоды. При расчете учитывается влияние влажности воздуха и скорости ветра на теплоощущения человека.
Tes - Эффективная температура на солнце - температура, которую ощущает человек, с поправкой на солнечный нагрев. Характеристика знойности погоды. Зависит от высоты солнца над горизонтом, облачности и скорости ветра. Ночью, в пасмурную погоду, а также при ветре 12 м/с и более поправка равна нулю.
P - Атмосферное давление - приведенное к уровню моря атмосферное давление.
Po - Атмосферное давление - измеренное на уровне метеостанции атмосферное давление.
Tmin - Минимальная температура - минимум температуры воздуха на высоте 2 м над землей.
Tmax - Максимальная температура - максимум температуры воздуха на высоте 2 м над землей.
R - Количество осадков - Количество выпавших осадков за период времени, мм. При наведении курсора мыши на число - период времени, за который выпало указанное количество осадков.
R24 - Количество осадков - Количество выпавших осадков за 24 часа, мм.
S - Снежный покров - Высота снежного покрова, см. При наведении курсора мыши на число - состояние снежного покрова и степень покрытия местности в баллах.